Weather in Ishcheino

Russia / Lipetsk Oblast     52°57′24″N   38°48′38″E
temp.,
°C
wind,
m/s
gust,
m/s
humid.,
%
clouds,
%
prec.,
mm/h
press.,
hPa
HPBL,
m
11 april, sun
sun1100:00+5nw22540 0.0 102710
03:00+3nnw22590 0.0 102814
06:00+2nnw226574 0.0 102917
09:00+6nne2354100 0.0 1030235
12:00+10nne344029 0.0 1030938
15:00+12ne5637100 0.0 10291123
18:00+10ne484887 0.0 1030355
21:00+6ne41065100 0.0 1030204
12 april, mon
mon1200:00+5ne51167100 0.0 1030260
03:00+5ne51168100 0.0 1029304
06:00+5ne51082100 0.0 1029290
09:00+8ene5882100 0.0 1028391
12:00+12e5772100 0.0 1027495
15:00+16e5759100 0.0 1025801
18:00+16e366142 0.0 1024139
21:00+12ese4127276 0.0 1024190
13 april, tue
tue1300:00+11se41272100 0.0 1024204
03:00+9sse488053 0.0 1024120
06:00+9sse348399 0.0 102461
09:00+13se476332 0.0 1024284
12:00+18se7940100 0.0 10231092
15:00+18sse6839100 0.0 10221300
18:00+17se4948100 0.0 1021296
21:00+13se495923 0.0 1021156
14 april, wed
wed1400:00+12sse4106687 0.0 1021204
03:00+11ese367196 0.0 102079
06:00+10sse411778 0.0 1020210
09:00+14sse486521 0.0 1020438
12:00+18sse685380 0.0 10191237
15:00+19s6845100 0.0 10181991
18:00+15sw4969100 0.1 1018370
21:00+13s367598 0.1 1018114
15 april, thu
thu1500:00+12ssw2280100 0.0 101827
03:00+11sw1182100 0.1 101810
06:00+11nw118199 0.0 101710
09:00+14ene1169100 0.0 1017250
12:00+15s5662100 0.9 1017763
15:00+15nw3355100 1.2 1016601
18:00+14nne2361100 0.0 1014124
21:00+12n4873100 0.1 1014235